Regional Weather Roundup
Issued by NWS Grand Forks, ND

Home | Current Version | Previous Version | Graphics & Text | Print | Product List | Glossary On
Versions: 1 2 3 4 5 6 7 8 9 10 11 12 13 14 15 16 17 18 19 20 21 22 23 24 25 26 27 28 29 30 31 32 33 34 35 36 37 38 39 40 41 42 43 44 45 46 47 48 49 50
000
ASUS43 KFGF 161710
RWRFGF
PRAIRIE TO PINES  WEATHER ROUNDUP
NATIONAL WEATHER SERVICE EASTERN NORTH DAKOTA/GRAND FORKS ND
1200 PM CDT MON OCT 16 2017

 **SATELLITE DATA USED TO AUGMENT SKY COVER AT AUTOMATED STATIONS**
 *****  WEATHER ACROSS EASTERN NORTH DAKOTA  *****

CITY           SKY/WX    TMP DP  RH WIND       PRES   REMARKS
GRAND FORKS    FAIR      63  36  36 SW17G29   29.88F
GRAND FRKS AFB FAIR      63  33  33 SW23      29.88F
DEVILS LAKE    FAIR      58  35  42 W21       29.88F
FARGO          FAIR      58  39  49 S17       29.99F
WAHPETON ARPT  NOT AVBL
$$

 ***** WEATHER ACROSS CENTRAL AND WESTERN NORTH DAKOTA  *****

CITY           SKY/WX    TMP DP  RH WIND       PRES   REMARKS
BISMARCK       FAIR      65  34  31 W13       29.97F
MINOT          FAIR      62  35  36 W17G29    29.88S
JAMESTOWN      FAIR      64  33  31 SW20G31   29.94F
MINOT AFB      FAIR      61  35  38 W17G25    29.86S
GARRISON         N/A     61  35  37 W22       29.93S
WILLISTON      FAIR      59  36  42 W21G31    29.93F
DICKINSON      FAIR      61  32  33 W17       29.99S
HETTINGER      FAIR      60  31  33 W16       30.06S
$$

 *****  OTHER AIRPORT OBSERVATIONS IN OUR AREA  *****

CITY           SKY/WX    TMP DP  RH WIND       PRES   REMARKS
WALHALLA       FAIR     N/A N/A N/A W16       29.81S
GRAFTON AIRPOR FAIR      59  34  38 SW15G23   29.88
VALLEY CITY AR NOT AVBL
CANDO          FAIR      59  34  38 W17G29    29.87F
CAVALIER APRT  FAIR      59  37  44 SW10G16   29.83S
GWINNER        SUNNY     59  36  41 SW21      30.01F
SHEYENNE NWR     N/A     60  37  42 SW17      29.95
ROLLA          FAIR      54  34  47 W12G18    29.85R
 ***** THE ABOVE OBSERVATIONS ARE NON NWS ARE NOT QUALITY
       CONTROLLED AND MAY MIS-REPORT RAIN FOR SNOW...
$$

  *****  WEATHER ACROSS NORTHERN MINNESOTA  *****

CITY           SKY/WX    TMP DP  RH WIND       PRES   REMARKS
FLAG ISLAND    FAIR      54  36  50 S14G21    29.88F
WARROAD        FAIR      55  37  50 S10G18    29.90F
ROSEAU           N/A     55  37  50 S18G26    29.88F
HALLOCK        FAIR      57  34  41 S20G26    29.84F
THF RVR FALLS  FAIR      57  33  40 SW22G28   29.93F
BAUDETTE       FAIR      55  34  45 S14G23    29.93F
WASKISH        FAIR      57  34  41 SW12G17   29.98F
CROOKSTON      FAIR      57  34  41 S22G28    29.93F
STEPHEN NDAWN    N/A     57  36  44 S18         N/A
GREENBUSH NDAW   N/A     55  34  44 S18         N/A
$$
  *****  WEATHER ACROSS CENTRAL AND WEST MINNESOTA  *****

CITY           SKY/WX    TMP DP  RH WIND       PRES   REMARKS
FOSSTON        FAIR      55  32  41 S22       29.97F
BEMIDJI        FAIR      55  34  44 SW16G22   30.02S
PARK RAPIDS    FAIR      56  37  49 SW14G23   30.05F
ELBOW LAKE     FAIR      56  38  49 S14       30.08F
WADENA         FAIR      55  36  47 S17G24    30.06F
DETROIT LAKES  FAIR      55  36  47 SW12      30.04F
MOORHEAD       FAIR      55  37  50 S14G20    30.01F
FERGUS FALLS   FAIR      57  37  47 S14       30.06F
MORRIS MN      FAIR      59  41  51 SW12      30.09F
STAPLES        FAIR      55  30  38 SW15      30.09F
$$
  *****  WEATHER ELSEWHERE ACROSS MINNESOTA  *****

CITY           SKY/WX    TMP DP  RH WIND       PRES   REMARKS
DULUTH         FAIR      53  37  54 W13G24    30.09F
INTRNTL FALLS  FAIR      53  34  48 SW9       29.99F
ELY            FAIR      48  32  53 SW9G20    30.06F
CLOQUET        FAIR      54  34  47 SW15G21   30.10F
WHEATON        FAIR      61  34  36 S12       30.07F
BRAINERD       FAIR      54  35  48 SW15      30.11F
HIBBING        FAIR      51  32  48 SW12G21   30.07F
ALEXANDRIA     FAIR      57  36  45 S16       30.11F
SAINT CLOUD    FAIR      57  36  45 SW10      30.16F
MINNEAPOLIS    FAIR      54  37  52 SW9       30.21F
$$

  *****  WEATHER ACROSS SOUTH DAKOTA  *****

CITY           SKY/WX    TMP DP  RH WIND       PRES   REMARKS
SIOUX FALLS    FAIR      62  39  42 S18       30.17F
BROOKINGS      FAIR      61  37  41 S20G25    30.13F
WATERTOWN      FAIR      60  37  42 S13G22    30.08F
HURON          FAIR      58  38  47 S15       30.08F
SISSETON         N/A     63  37  38 SW26G36   30.02F
ABERDEEN       FAIR      57  38  48 SW12      30.06F
MITCHELL       FAIR      64  36  35 S12       30.11F
PIERRE         FAIR      52  35  52 SW7       30.07F
MOBRIDGE       FAIR      58  37  45 S10       30.01F
RAPID CITY     FAIR      66  28  24 VRB3      30.12F
$$

  *****  SOME WEATHER IN NEARBY STATES *****

CITY           SKY/WX    TMP DP  RH WIND       PRES   REMARKS
GLASGOW MT     FAIR      60  33  36 W17G29    29.99F
GREAT FALLS MT FAIR      60  18  19 SW26G38   30.14S
CHEYENNE WY    FAIR      62   8  12 W21G26    30.31F
SCOTTSBLUFF NE FAIR      58  30  34 NW3       30.21F
OMAHA NE       FAIR      64  40  41 S13       30.29F
DES MOINES IA  FAIR      63  37  38 SW12      30.32F
DAVENPORT IA   FAIR      59  36  42 W8        30.34F
CHICAGO IL     FAIR      58  39  49 SW9       30.30F
EAU CLAIRE WI  FAIR      55  37  50 SW13      30.21F
LA CROSSE WI   FAIR      55  41  59 S8        30.26S
$$

  *****  SOME NATIONAL WEATHER *****

CITY           SKY/WX    TMP DP  RH WIND       PRES   REMARKS
LA GUARDIA NY  CLOUDY    58  43  57 NW18      29.99F
RALEIGH NC     CLOUDY    57  56  96 N7        30.10S
ATLANTA GA     PTSUNNY   65  49  56 N18       30.13F
NEW ORLEANS LA PTSUNNY   68  60  75 N17G24    30.15F
OKLAHOMA CITY  FAIR      63  32  31 CALM      30.45S
ALBUQUERQUE NM FAIR      55  24  30 CALM      30.51F
SALT LAKE CITY PTSUNNY   50  26  39 CALM      30.44S
LOS ANGELES CA FAIR      84  22  10 NE3       30.07S
BOISE ID         N/A     49  28  44 SE5       30.40S
SEATTLE WA     FAIR      49  47  93 S8        30.24S
$$

*** WEATHER ACROSS MANITOBA...SASKATCHEWAN AND ONTARIO ***
                ***ONTARIO***

CITY           SKY/WX    TMP DP  RH WIND       PRES   REMARKS
GERALDTON      PTSUNNY   46  34  61 SW10G17   29.99S
THUNDER BAY    CLOUDY    52  36  54 W6        30.05S
SIOUX LOOKOUT  PTSUNNY   46  37  71 SW7       29.93F
TORONTO        PTSUNNY   46  32  57 NW15      30.22F
BIG TROUT LK   PTSUNNY   39  34  81 SW13G18   29.79F
PICKLE LAKE    LGT RAIN  41  34  75 SW7       29.90F
DRYDEN         PTSUNNY   46  36  66 SW12G17   29.92F
KENORA         PTSUNNY   52  36  54 S15G24    29.87F
$$
                *** MANITOBA***

CITY           SKY/WX    TMP DP  RH WIND       PRES   REMARKS
BRANDON        MOSUNNY   52  34  50 W18       29.80F
DAUPHIN        SUNNY     57  36  44 W20G25    29.72S
ISLAND LAKE    NOT AVBL
PILOT MOUND      N/A     54  34  47 W12G20      N/A
THE PAS        MOSUNNY   55  34  44 W20G26    29.55S
THOMPSON       LGT RAIN  41  39  93 S8        29.40F
WINNIPEG       MOSUNNY   52  34  50 SW14      29.78F
LYNN LAKE      CLOUDY    41  41 100 W9        29.34F
CHURCHILL      CLOUDY    28  28 100 SE6       29.61F WCI  22
GILLAM         SNOW      32  32 100 SE9       29.53F VSB 1/2 WCI  24
$$
                ***SASKATCHEWAN***

CITY           SKY/WX    TMP DP  RH WIND       PRES   REMARKS
ESTEVAN        MOSUNNY   57  34  41 W16G22    29.88S
KINDERSLEY     MOSUNNY   50  30  46 VRB2      29.90S
LLOYDMINSTER   CLOUDY    50  34  53 W7        29.82R
PRINCE ALBERT  PTSUNNY   55  34  44 W20G29    29.76R
REGINA         PTSUNNY   52  34  50 NW7       29.89R
YORKTON        SUNNY     59  34  38 NW16      29.79R
N. BATTLEFORD  PTSUNNY   55  32  41 W20G26    29.85R
LA RONGE       PTSUNNY   50  36  57 W21G36    29.65R
SASKATOON      MOSUNNY   57  32  38 W16       29.85F
SWIFT CURRENT  SUNNY     52  30  43 W14       29.93R
$$
NOTE: THESE ARE AUTOMATED STATIONS WITH LIMITED QUALITY CONTROL
      "FAIR" INDICATES FEW OR NO CLOUDS BELOW 12,000 FEET WITH NO
      SIGNIFICANT WEATHER AND/OR OBSTRUCTIONS TO VISIBILITY.
      SKY/WX - SKY CONDITION AND SIGNIFICANT WEATHER.
      TMP - AIR TEMPERATURE.    DP   - DEWPOINT TEMPERATURE.
      RH  - RELATIVE HUMIDITY.  PRES - PRESSURE.
      HX  - HEAT INDEX.         WCI  - WIND CHILL INDEX.
$




USA.gov is the U.S. government's official web portal to all federal, state and local government web resources and services.